This is the latest recevied weather packets stored in our database for station/object KY0TEQ-13. If no packets are shown the sender has not sent any weather packets the latest 10 day(s).
| Time | Temp. | Humidity | Pressure | Rain* | Wind** | Luminosity | Snow |
|---|---|---|---|---|---|---|---|
| 1777720561 | 0.56° C | 71% | 1308.8 hPa | 0 mm | - | 0 W/m² | - |
| 1777720259 | 0.56° C | 71% | 1308.8 hPa | 0 mm | - | 0 W/m² | - |
| 1777719956 | 0.56° C | 71% | 1308.6 hPa | 0 mm | - | 0 W/m² | - |
| 1777719654 | 0.56° C | 71% | 1308.9 hPa | 0 mm | - | 0 W/m² | - |
| 1777719351 | 1.11° C | 70% | 1308.6 hPa | 0 mm | - | 0 W/m² | - |
| 1777719048 | 1.11° C | 70% | 1308.6 hPa | 0 mm | - | 0 W/m² | - |
| 1777718745 | 1.11° C | 70% | 1308.5 hPa | 0 mm | - | 0 W/m² | - |
| 1777718443 | 1.11° C | 69% | 1308.8 hPa | 0 mm | - | 0 W/m² | - |
| 1777718140 | 1.11° C | 69% | 1308.8 hPa | 0 mm | - | 0 W/m² | - |
| 1777717838 | 1.67° C | 68% | 1308.6 hPa | 0 mm | - | 0 W/m² | - |
| 1777717534 | 1.67° C | 68% | 1308.9 hPa | 0 mm | - | 0 W/m² | - |
| 1777717232 | 1.67° C | 68% | 1308.6 hPa | 0 mm | - | 0 W/m² | - |
| 1777716929 | 1.67° C | 68% | 1308.8 hPa | 0 mm | - | 0 W/m² | - |
| 1777716627 | 1.67° C | 69% | 1308.6 hPa | 0 mm | - | 0 W/m² | - |
| 1777716326 | 1.11° C | 70% | 1308.8 hPa | 0 mm | - | 0 W/m² | - |
| 1777716023 | 1.11° C | 71% | 1308.8 hPa | 0 mm | - | 0 W/m² | - |
| 1777715721 | 1.11° C | 70% | 1308.6 hPa | 0 mm | - | 0 W/m² | - |
| 1777715419 | 0.56° C | 71% | 1308.6 hPa | 0 mm | - | 0 W/m² | - |
| 1777715115 | 0° C | 73% | 1308.5 hPa | 0 mm | - | 0 W/m² | - |
| 1777714814 | 0° C | 73% | 1308.5 hPa | 0 mm | - | 0 W/m² | - |
| 1777714512 | 0.56° C | 73% | 1308.4 hPa | 0 mm | - | 0 W/m² | - |
| 1777714209 | 0.56° C | 73% | 1308.3 hPa | 0 mm | - | 0 W/m² | - |
| 1777713907 | 0.56° C | 73% | 1308.3 hPa | 0 mm | - | 0 W/m² | - |
| 1777713604 | 0.56° C | 72% | 1308.2 hPa | 0 mm | - | 0 W/m² | - |
| 1777713300 | 0.56° C | 72% | 1308.3 hPa | 0 mm | - | 0 W/m² | - |
* Rain latest hour (hover to see other rain measurements)
** Current wind speed in m/s (hover to see current wind gust speed)